{"data":{"norad_id":65570,"intl_designator":"2025-203F","name":"PRAETORIAN SDA_607","alt_names":[],"object_type":"PAYLOAD","status":"ACTIVE","operator":null,"country":"US","launch_date":"2025-09-10","launch_site_code":"AFWTR","launch_vehicle":null,"mission":null,"orbit_class":"UNKNOWN","rcs_meters":null,"size_class":null,"mass_kg":null,"dimensions":null,"purposes":["military"],"wikipedia_slug":null,"has_3d_model":false,"image_url":null,"decayed_at":null,"tle_current":{"epoch":"2026-05-25T02:44:02.205024Z","epoch_age_seconds":65316,"freshness":"FRESH","line1":"1 65570U 25203F   26145.11391441  .00000088  00000+0  68459-4 0  9998","line2":"2 65570  81.3059  32.0149 0007811 256.4433 103.5854 13.84281744 35516","mean_motion":13.84281744,"eccentricity":0.0007811,"inclination_deg":81.3059,"raan_deg":32.0149,"arg_perigee_deg":256.4433,"mean_anomaly_deg":103.5854,"bstar":6.8459e-5,"rev_number":3551,"period_min":104.02506615734,"perigee_km":943.01606872868,"apogee_km":954.46211455905,"semimajor_km":7326.8760916439,"source":"CELESTRAK","updated_at":"2026-05-25T13:38:25.168356Z"}}}